Content
SEND FEEDBACK

Daily
Averages
Monthly
Summary
United States of America

SOUTH LAKE TAHOE, CALIFORNIA


Home > North America > United States > California
Elevation: 6263 feet     Latitude: 38 53N     Longitude: 119 59W

WEATHER
 
SELECT A DAY
Number of Records: 174,493;   Date Range: 1/1/95 - 8/12/14
 
SHARE

PRINT THIS DATA

[ ← Previous Day ]
WEATHER ALMANAC - JULY 16, 2013
[ Next Day → ]
[ °C ]   °F
Weather ElementAverageHighLow
Temperature64.9 °F77 °F (1:53 pm)48 °F (5:53 am)
Dewpoint35.1 °F42.1 °F (1:53 am)28.9 °F (8:53 am)
Humidity38.1 %69 % (6:53 am)17 % (1:53 pm)
Barometer29.95 in30.07 in (11:53 pm)29.88 in (1:53 am)
Wind Speed5.7 mph13.8 mph (1:53 pm)
Wind Gust25.3 mph (4:53 pm)
Weather ElementAverage
Visibility10 mi
Wind DirectionESE (111.7 °)

Weather ElementTotal
Precipitation---
Heating Degree Days2.5 (Base 65)
Growing Degree Days12.5 (Base 50)
Averaged from 23 records on July 16, 2013
WEATHER CONDITIONS BREAKOUT
WIND DIRECTION BREAKOUT
WEATHER BY HOUR - JULY 16, 2013
[ °C ]   °F
Local TimeTemperatureDewpointHumidityBarometerVisibilityWind DirectionWind SpeedGust SpeedPrecipitationEventsConditions
1:53 AM55.0 °F42.1 °F62 %29.88 in10.0 miCalmMostly Cloudy
2:53 AM53.1 °F41.0 °F64 %29.88 in10.0 miCalmScattered Clouds
3:53 AM52.0 °F39.9 °F63 %29.88 in10.0 miCalmPartly Cloudy
4:53 AM50.0 °F39.9 °F68 %29.89 in10.0 miCalmClear
5:53 AM48.0 °F37.9 °F68 %29.91 in10.0 miCalmClear
6:53 AM48.9 °F39.0 °F69 %29.92 in10.0 miSouth (190°)3.5 mphClear
7:53 AM66.9 °F30.9 °F26 %29.90 in10.0 miSouth (190°)9.2 mphClear
8:53 AM71.1 °F28.9 °F21 %29.90 in10.0 miSouth (190°)10.4 mphClear
9:53 AM72.0 °F30.0 °F21 %29.90 in10.0 miVariable6.9 mphClear
10:53 AM73.0 °F32.0 °F22 %29.92 in10.0 miCalmClear
11:53 AM75.0 °F33.1 °F22 %29.94 in10.0 miVariable6.9 mph18.4 mphClear
12:53 PM75.9 °F32.0 °F20 %29.94 in10.0 miSSW (200°)10.4 mph20.7 mphClear
1:53 PM77.0 °F28.9 °F17 %29.95 in10.0 miSouth (190°)13.8 mph20.7 mphClear
2:53 PM77.0 °F28.9 °F17 %29.96 in10.0 miSSW (200°)11.5 mph19.6 mphClear
3:53 PM77.0 °F30.0 °F18 %29.96 in10.0 miSW (220°)10.4 mph21.9 mphClear
4:53 PM77.0 °F30.9 °F19 %29.97 in10.0 miSSW (200°)11.5 mph25.3 mphClear
5:53 PM73.9 °F35.1 °F24 %29.98 in10.0 miSSW (210°)6.9 mph19.6 mphClear
6:53 PM71.1 °F36.0 °F28 %30.01 in10.0 miSouth (190°)10.4 mphClear
7:53 PM66.9 °F37.9 °F34 %29.98 in10.0 miSSW (200°)5.8 mphClear
8:53 PM64.9 °F37.9 °F37 %29.99 in10.0 miSSW (210°)6.9 mphClear
9:53 PM61.0 °F39.0 °F44 %30.03 in10.0 miSouth (180°)5.8 mphClear
10:53 PM54.0 °F39.0 °F57 %30.06 in10.0 miCalmClear
11:53 PM51.1 °F36.0 °F56 %30.07 in10.0 miCalmClear
Hourly data recorded from KTVL, located miles away from South Lake Tahoe, California







STORIES FROM OUR PARTNERS